Location: *
(49.1282°S, 178.1609°W)
Time: 04:28:36
(UTC+00:00)

Daily predictions for brighter satellites

Satellite Brightness Start Highest point End
(mag) Time Altitude Azimuth Time Altitude Azimuth Time Altitude Azimuth
Uosat 12 SS-18 rocket 4.2 06:26:00 10° NNW 06:30:54 65° NE 06:35:11 10° SE
USA 234 3.7 06:24:44 10° SE 06:31:18 65° SSW 06:37:50 10° WNW
Cosmos 1674 3.6 06:29:16 10° NNE 06:32:23 26° E 06:35:33 10° SSE
Cosmos 2034 Rocket 4.1 06:27:00 10° N 06:33:17 87° E 06:39:37 10° S
Okean O Rocket 3.3 06:31:25 10° ESE 06:33:37 13° E 06:35:49 10° ENE
IRIDIUM 106 4.4 06:29:41 10° S 06:35:02 82° E 06:40:18 10° N
CORIOLIS 4.2 06:29:28 10° SSE 06:35:03 84° ENE 06:40:32 10° NNW
Cosmos 1908 Rocket 4.1 06:31:57 10° SSW 06:36:29 67° W 06:40:55 10° N
Cosmos 2237 Rocket 3.3 06:31:29 10° SSW 06:36:30 30° SE 06:41:29 10° ENE
CZ-4C R/B 3.0 06:33:12 10° NNE 06:36:40 64° ESE 06:40:11 10° S
USA 308 3.8 06:33:29 10° WSW 06:37:29 42° S 06:41:28 10° ESE
Meteor PRIRODA 4.0 06:33:46 10° S 06:37:33 74° WSW 06:41:17 10° NNW
Cosmos 2360 Rocket 3.4 06:33:23 10° SW 06:38:50 45° WNW 06:44:13 10° N
Okean 1-7 3.2 06:35:28 10° N 06:39:50 84° W 06:44:18 10° S
Cosmos 1437 Rocket 3.8 06:37:05 10° SSW 06:41:08 54° W 06:45:04 10° N
CZ-2D R/B 4.2 06:38:28 10° S 06:42:19 54° WSW 06:46:08 10° NNW
SJ-11-01 4.3 06:38:18 10° SSE 06:43:06 80° ENE 06:47:49 10° N
Cosmos 1300 Rocket 3.8 06:38:54 10° S 06:43:13 48° ESE 06:47:27 10° NNE
Cosmos 1782 Rocket 3.6 06:39:32 10° S 06:44:03 82° E 06:48:28 10° NNE
NOAA 6 4.0 06:39:05 10° SSE 06:44:19 76° ENE 06:49:28 10° N
In-Cosmos 22 4.4 06:39:19 10° NNE 06:44:36 50° E 06:50:06 10° SSE
ADEOS 3.9 06:39:20 10° SSE 06:44:39 75° WSW 06:49:54 10° NNW
COSMOS 2428 2.8 06:40:49 10° SSW 06:46:35 71° ESE 06:52:18 10° NE
Cosmos 405 Rocket 4.0 06:45:20 10° NNW 06:49:01 46° WSW 06:52:42 10° S
YAOGAN 1 3.7 06:46:20 10° SE 06:49:52 23° E 06:53:23 10° NE
Okean 2 Rocket 4.0 06:47:22 10° S 06:51:19 29° ESE 06:55:15 10° NE
Alouette 2 Rocket 3.6 06:46:46 10° N 06:51:23 53° E 06:55:02 10° SSE
SJ 16-02 1.4 06:47:56 10° SSW 06:52:27 86° WNW 06:56:54 10° NNE
Cosmos 1300 4.5 06:50:28 10° SSE 06:52:56 16° ESE 06:54:38 13° E
KORONAS-FOTON 4.0 06:50:47 10° N 06:54:29 49° E 06:58:13 10° SSE
Meteor 1-21 4.3 06:50:56 10° N 06:56:27 58° E 07:02:03 10° SSE
Cosmos 1777 Rocket 4.0 06:51:58 10° SSW 06:57:21 72° ESE 07:02:39 10° NNE
NOSS 0 Rocket 4.1 06:51:40 10° SSW 06:57:54 60° SE 07:04:02 10° NE
CZ-4C R/B 4.1 06:53:27 10° NNE 06:58:54 19° ENE 07:03:54 10° ESE
ARGOS 3.6 06:55:38 10° S 07:01:06 68° WSW 07:06:27 10° NNW
Okean 2 3.7 06:58:52 10° NNE 07:02:47 43° E 07:06:45 10° SSE
CZ-4B R/B 3.8 06:58:07 10° SSE 07:03:01 34° E 07:07:50 10° NNE
Cosmos 1707 2.8 07:00:51 10° N 07:04:45 88° W 07:08:44 10° S
Cosmos 1842 4.5 07:01:18 10° NNW 07:05:09 47° WSW 07:09:03 10° S
USA 305 3.5 07:01:41 10° WSW 07:05:44 47° S 07:08:59 15° E
CZ-4B R/B 4.0 07:01:55 10° S 07:05:57 51° WSW 07:10:10 10° NNW
X-37B 3.1 07:05:00 10° NW 07:05:58 11° NNW 07:06:58 10° N
PAYLOAD B 4.4 07:03:49 10° SSE 07:09:24 53° E 07:14:53 10° N
Cosmos 1626 2.0 07:07:31 10° N 07:11:11 71° E 07:14:55 10° SSE
PSLV R/B 4.2 07:08:39 10° NNE 07:12:45 53° ESE 07:16:56 10° S
Cosmos 2279 Rocket 4.1 07:06:53 10° N 07:13:01 59° E 07:19:14 10° SSE
Geosat 4.0 07:08:50 10° NNE 07:13:54 87° ESE 07:19:01 10° SSW
Cosmos 1271 Rocket 3.9 07:11:33 10° SSE 07:14:44 24° ESE 07:15:57 20° E
Meteor 1-16 Rocket 4.2 07:10:38 10° S 07:15:57 57° ESE 07:21:17 10° NNE
SL-16 R/B 3.6 07:12:01 10° S 07:16:38 24° SE 07:19:50 15° E
Cosmos 2142 Rocket 4.5 07:10:55 10° N 07:16:58 62° E 07:23:06 10° SSE
Kosmos-1675 4.3 07:09:54 10° SW 07:17:15 79° NW 07:20:43 13° NNE
Cosmos 1634 Rocket 4.1 07:11:46 10° N 07:18:05 88° W 07:24:33 10° S
Cosmos 2151 Rocket 3.9 07:14:31 10° S 07:18:59 48° ESE 07:22:24 16° NE
Lacrosse 5 rocket 1.3 07:16:06 10° NNW 07:19:38 48° NE 07:22:28 16° ESE
APEX 3.9 07:16:09 10° SSW 07:21:00 50° SE 07:23:20 23° ENE
Meteor 2-10 Rocket 4.1 07:18:42 10° S 07:23:41 40° ESE 07:26:59 20° NE
H-2A R/B 2.2 07:19:39 12° NNE 07:23:51 66° ESE 07:28:26 10° S
CZ-4B DEB 4.2 07:18:20 10° SSE 07:23:57 87° ENE 07:29:27 10° NNW
Cosmos 1758 3.5 07:20:31 10° SSW 07:24:34 73° W 07:28:33 10° N
Genesis I 3.2 07:21:03 10° NW 07:24:42 75° SW 07:28:24 10° SE
Cosmos 1908 3.2 07:21:52 10° S 07:25:49 84° WNW 07:29:41 10° N
Aureole 3 Rocket 3.3 07:25:25 23° NE 07:26:50 31° E 07:29:49 10° SSE
Cosmos 990 Rocket 4.5 07:22:38 10° SSW 07:27:36 43° ESE 07:30:22 23° ENE
PSLV R/B 3.9 07:24:21 10° SSE 07:28:29 87° WSW 07:32:30 10° NNW
CENTAUR R/B 4.4 07:22:51 10° W 07:29:11 30° SSW 07:34:38 10° SE
CZ-4B R/B 1.8 07:33:07 33° ESE 07:33:14 33° ESE 07:36:03 10° S
Sich 1 Rocket 3.6 07:29:11 10° S 07:33:49 87° E 07:38:11 11° N
Cosmos 1607 4.3 07:30:24 10° SW 07:36:47 67° WNW 07:42:06 15° NNE
Okean-O 4.3 07:33:48 10° SE 07:35:47 17° ESE 07:35:47 17° ESE
USA 276 1.9 07:35:53 10° WNW 07:38:53 65° NNE 07:39:22 53° ENE
FALCON 9 DEB 3.6 07:36:46 10° NNW 07:39:25 35° NNE 07:39:25 35° NNE
USA 307 3.2 07:38:11 10° WSW 07:42:17 54° SSE 07:44:03 30° E
Cosmos 1674 Rocket 3.8 07:38:37 14° NNE 07:42:19 51° E 07:46:44 10° SSE
ATLAS 3B R/B 3.0 07:38:38 10° N 07:45:34 44° ENE 07:52:09 10° SE
SL-14 R/B 3.2 07:45:43 13° N 07:49:18 68° E 07:53:24 10° SSE
Cosmos 1818 4.4 07:44:03 10° WNW 07:49:18 52° SW 07:54:38 10° SSE
Cosmos 1898 Rocket 4.0 07:44:25 10° SSW 07:49:25 42° ESE 07:51:09 32° ENE
CZ-4 R/B 1.3 07:46:18 10° SSE 07:50:19 64° ENE 07:53:19 17° N
Cosmos 2227 Rocket 2.8 07:49:17 28° NE 07:50:49 33° ENE 07:55:52 10° SE
ATLAS 5 CENTAUR R/B 2.0 07:45:03 10° SW 07:50:59 80° NW 07:53:24 31° NNE
USA 306 3.0 07:50:40 10° WSW 07:54:50 65° SSE 07:56:02 42° E
SJ-6B 4.1 07:53:54 10° SSE 07:56:12 26° ESE 07:56:12 26° ESE
Cosmos 1980 3.7 07:54:34 10° SSW 08:00:18 81° WNW 08:03:27 28° NNE
Cosmos 540 Rocket 4.5 08:03:35 28° ESE 08:03:35 28° ESE 08:06:48 10° SE
Cosmos 2221 Rocket 3.7 07:57:37 10° NNW 08:02:13 79° W 08:06:52 10° S
Cosmos 2219 Rocket 4.3 07:58:01 10° SW 08:02:25 23° WNW 08:06:47 10° NNW
Cosmos 2297 Rocket 2.1 07:59:16 10° NNW 08:04:51 62° ENE 08:10:29 10° SE
ERBS 3.1 08:02:22 10° SW 08:04:52 36° S 08:04:52 36° S
Cosmos 1953 2.5 08:02:11 10° SSW 08:06:17 72° W 08:08:02 33° N
Cosmos 1238 Rocket 3.7 08:00:55 10° S 08:06:45 58° ESE 08:08:13 43° NE
Okean O Rocket 1.7 08:06:03 10° SSE 08:10:32 76° WSW 08:14:55 10° NNW
Cosmos 1378 Rocket 3.5 08:08:26 18° NNW 08:11:36 84° W 08:16:03 10° S
USA 234 4.1 08:07:56 12° ESE 08:13:47 46° S 08:20:00 10° WSW
USA 308 2.8 08:13:06 10° WSW 08:17:18 73° SSE 08:17:39 68° ESE
CSL-04 Debris 4.3 08:11:56 10° SSE 08:17:24 52° E 08:18:25 46° NE
Cosmos 1655 Rocket 4.1 08:11:18 10° S 08:17:47 83° W 08:22:00 23° N
Cosmos 1763 Rocket 3.4 08:14:58 13° N 08:19:42 69° ENE 08:25:03 10° SSE
Cosmos 2237 Rocket 2.6 08:15:19 10° SW 08:21:00 61° WNW 08:23:39 31° N
Meteor 1-24 Rocket 4.3 08:21:42 39° E 08:21:42 39° E 08:26:59 10° SSE
Okean 1 Rocket 3.1 08:18:05 10° SSW 08:22:31 76° W 08:23:32 52° NNW
SL-8 R/B 3.9 08:18:07 10° NW 08:22:31 52° N 08:22:31 52° N
USA 186 3.8 08:20:23 10° SSE 08:21:31 20° SSE 08:21:31 20° SSE
YAOGAN 1 3.8 08:21:57 10° S 08:26:08 43° WSW 08:30:16 10° NW
Cosmos 1455 Rocket 3.7 08:21:51 10° S 08:25:33 43° SE 08:25:33 43° SE
Cosmos 1300 3.5 08:25:01 10° SSW 08:28:46 49° W 08:29:28 42° NW
SJ 16-02 4.5 08:29:18 10° W 08:30:10 10° W 08:31:02 10° WNW
Cosmos 372 Rocket 4.1 08:29:25 10° SSW 08:34:40 56° ESE 08:34:57 55° ESE
Cosmos 220 Rocket 4.2 08:30:18 10° SSW 08:34:47 68° WNW 08:35:11 64° NW
Cosmos 2219 3.1 08:42:08 65° ENE 08:42:08 65° ENE 08:47:45 10° SSE
Landsat 7 4.4 08:37:30 10° SSE 08:41:02 44° SE 08:41:02 44° SE
CZ-4B R/B 4.4 08:38:36 10° S 08:43:40 41° WSW 08:48:39 10° NW
USA 81 4.0 08:43:32 58° N 08:44:38 87° W 08:50:02 10° S
USA 305 3.4 08:41:08 10° WSW 08:44:31 54° W 08:44:31 54° W
CZ-4C R/B 2.8 08:38:28 10° NNW 08:46:47 71° NE 08:53:46 10° SE
CSL-04 Rocket 3.5 08:42:46 10° SSE 08:48:14 81° ENE 08:48:40 74° NNE
Cosmos 1455 3.8 08:45:36 10° S 08:47:40 29° S 08:47:40 29° S
Cosmos 1271 Rocket 4.3 08:47:15 10° SSW 08:50:38 29° W 08:50:59 29° WNW
Meteor 2-5 Rocket 3.6 08:50:46 72° ENE 08:51:00 73° E 08:56:54 10° SSE
Cosmos 2263 Rocket 4.5 08:55:43 11° SE 08:55:43 11° SE 08:55:52 10° SE
Resurs 01 Rocket 3.6 08:48:32 10° SSE 08:50:00 19° SE 08:50:00 19° SE
IGS 5A 4.0 08:52:28 10° S 08:56:09 57° SW 08:56:09 57° SW
Cosmos 1244 Rocket 4.3 08:51:10 10° S 08:57:27 80° E 08:58:09 70° NE
Lacrosse 5 rocket 2.6 08:55:10 10° W 08:58:02 36° SW 08:58:02 36° SW
SL-16 R/B 2.1 08:55:41 10° SSW 09:01:28 83° WNW 09:01:43 80° NNW
CZ-4B R/B 4.3 09:05:12 13° W 09:05:12 13° W 09:06:15 10° WSW
Cosmos 1937 Rocket 3.6 08:59:43 10° SSW 09:04:59 70° WNW 09:04:59 70° WNW
CZ-2C R/B 4.5 09:08:18 46° W 09:08:18 46° W 09:12:34 10° SSW
Cosmos 44 3.8 09:07:44 10° SW 09:12:22 60° S 09:12:22 60° S
Okean-O 3.4 09:09:26 10° S 09:13:21 52° SW 09:13:21 52° SW
CENTAUR R/B 4.5 09:16:49 10° SW 09:21:49 22° S 09:25:32 13° SE
Cosmos 1745 Rocket 4.1 09:16:31 10° S 09:22:19 63° SE 09:22:19 63° SE
CZ-4 R/B 4.3 09:22:26 10° SSW 09:24:48 15° WSW 09:27:10 10° W
ATLAS 5 CENTAUR R/B 4.2 09:31:47 10° WSW 09:34:21 14° WNW 09:34:52 13° WNW
Cosmos 2227 Rocket 3.0 09:30:39 18° WNW 09:34:40 49° SW 09:40:16 10° SSE
Cosmos 1943 3.8 09:29:05 10° SSW 09:33:43 50° SSE 09:33:43 50° SSE
ATLAS 3B R/B 3.3 09:29:01 10° WNW 09:36:13 57° SW 09:43:03 10° SE
BREEZE-M DEB (TANK) 3.9 09:24:04 10° W 09:36:46 64° NW 09:36:46 64° NW
Cosmos 1603 4.4 09:35:51 10° SSW 09:40:31 48° SSE 09:40:31 48° SSE
Cosmos 2297 Rocket 4.0 09:44:22 10° WNW 09:49:19 29° SW 09:54:18 10° SSE
USA 234 3.7 09:55:16 51° SE 09:56:10 55° SSE 10:02:36 10° WSW
Cosmos 1709 Rocket 4.4 09:52:46 10° S 09:58:02 60° SSE 09:58:02 60° SSE
NOSS 3-1 (C) 4.2 10:07:11 10° NW 10:16:11 74° SW 10:23:49 10° SE
Resurs 01 Rocket 4.0 10:25:22 10° S 10:27:33 21° SSW 10:27:33 21° SSW
Cosmos 2263 Rocket 3.7 10:37:20 32° S 10:37:20 32° S 10:40:26 10° SSE
CZ-4C R/B 3.8 10:28:21 10° WNW 10:35:51 43° SW 10:42:05 10° SE
Terra 4.1 10:38:30 10° SSE 10:39:58 20° SSE 10:39:58 20° SSE
CENTAUR R/B 3.8 11:08:33 10° SW 11:12:40 32° S 11:12:40 32° S
CZ-2D R/B 4.1 11:26:36 23° SSE 11:26:36 23° SSE 11:29:13 10° S
Resurs 1-4 Rocket 4.1 11:26:46 24° SSE 11:26:46 24° SSE 11:29:33 10° S
NOSS 3-1 (A) 4.5 11:24:30 55° WSW 11:25:17 57° SW 11:32:38 10° SE
Cosmos 1833 Rocket 4.4 11:26:54 10° SSW 11:30:16 29° S 11:30:16 29° S
Cosmos 2082 Rocket 4.1 11:44:41 10° SSW 11:49:10 25° SE 11:49:10 25° SE
